Location: Sternwarte_Laufen
(47.9344°N, 12.9346°E)
Time: 05:38:33
(UTC+02:00)

ISS - Visible Passes

Search period start: 26 April 2019 00:00
Search period end: 06 May 2019 00:00
Orbit: 408 x 410 km, 51.6° (Epoch: 26 April)

Date Brightness Start Highest point End Pass type
(mag) Time Alt. Az. Time Alt. Az. Time Alt. Az.
01 May -1.5 04:30:44 10° S 04:32:56 17° SE 04:35:08 10° E visible
02 May -1.1 03:42:11 10° SE 03:42:18 10° SE 03:42:27 10° SE visible
03 May -2.7 04:25:38 19° SSW 04:27:29 34° SE 04:30:32 10° ENE visible
04 May -2.1 03:36:36 21° SE 03:36:45 21° SE 03:39:21 10° E visible
04 May -3.7 05:09:43 10° WSW 05:13:02 82° NNW 05:16:21 10° ENE visible
05 May -1.0 02:47:31 11° ESE 02:47:31 11° ESE 02:47:44 10° ESE visible
05 May -3.8 04:20:15 23° SW 04:22:08 69° SSE 04:25:26 10° ENE visible
